Weather in Rapid City

United States     44°04′50″N   103°13′50″W
temp.,
°C
wind,
m/s
gust,
m/s
humid.,
%
clouds,
%
prec.,
mm/h
press.,
hPa
HPBL,
m
18 may, tue
tue1800:00+11s4792100 0.1 1012149
03:00+11s489584 0.0 1011197
06:00+11s4893100 0.0 1010201
09:00+17s81163100 0.0 1008780
12:00+21s91049100 0.0 10071485
15:00+23s994384 0.0 10051837
18:00+22s8104997 0.0 10041036
21:00+17ssw614653 0.0 1005337
19 may, wed
wed1900:00+15sw511640 0.0 1006188
03:00+13sw33753 0.0 100639
06:00+12nw11780 0.0 100920
09:00+16nne565493 0.0 1010559
12:00+19nne555062 0.0 1009923
15:00+22ene2244100 0.0 10071721
18:00+22e234169 0.0 10051553
21:00+16sse335916 0.0 100621
20 may, thu
thu2000:00+14sw33714 0.0 100651
03:00+13ssw33765 0.0 100635
06:00+13ssw33765 0.0 100631
09:00+19s58535 0.0 1005529
12:00+23sse78473 0.0 10051219
15:00+26sse77360 0.0 10032235
18:00+25sse794096 0.0 10021873
21:00+15wsw4768100 0.9 1006125
21 may, fri
fri2100:00+15s227190 0.9 100638
03:00+13w22779 0.0 100812
06:00+13nw1179100 0.0 100911
09:00+17ene227125 0.0 1011519
12:00+17nne6574100 0.0 1012609
15:00+18n5568100 0.9 1012629
18:00+16n8979100 1.7 1012478
21:00+13n588777 0.5 1016441
22 may, sat
sat2200:00+11n4589100 0.5 1016215
03:00+9nnw4693100 0.0 1018216
06:00+9n5890100 0.0 1019273
09:00+9n4586100 0.1 1020263
12:00+11nne4481100 0.1 1020393
15:00+14nne3372100 0.0 1018626
18:00+15ne4470100 0.0 1017770
21:00+13ese1290100 0.4 101760